This is the latest recevied weather packets stored in our database for station/object OK1FET-5. If no packets are shown the sender has not sent any weather packets the latest 1 day(s).
| Time | Temp. | Humidity | Pressure | Rain* | Wind** | Luminosity | Snow |
|---|---|---|---|---|---|---|---|
| 1778016706 | 11.67° C | 92% | 1007.6 hPa | - | 1.79 m/s, 324° | - | - |
| 1778016412 | 12.22° C | 89% | 1007.6 hPa | - | 1.79 m/s, 339° | - | - |
| 1778016117 | 12.22° C | 90% | 1007.6 hPa | - | 2.24 m/s, 326° | - | - |
| 1778015823 | 12.22° C | 90% | 1007.6 hPa | - | 2.24 m/s, 331° | - | - |
| 1778015529 | 12.78° C | 86% | 1007.3 hPa | - | 2.24 m/s, 315° | - | - |
| 1778015234 | 13.33° C | 83% | 1007 hPa | - | 2.68 m/s, 323° | - | - |
| 1778014939 | 14.44° C | 82% | 1006.9 hPa | - | 4.02 m/s, 322° | - | - |
| 1778014645 | 16.11° C | 79% | 1006.7 hPa | - | 3.13 m/s, 309° | - | - |
| 1778014350 | 16.67° C | 71% | 1006.6 hPa | - | 1.79 m/s, 294° | - | - |
| 1778014055 | 16.67° C | 72% | 1006.2 hPa | - | 1.79 m/s, 312° | - | - |
| 1778013467 | 16.67° C | 67% | 1005.6 hPa | - | 1.34 m/s, 318° | - | - |
| 1778013172 | 16.67° C | 65% | 1005 hPa | - | 1.34 m/s, 331° | - | - |
| 1778012877 | 16.67° C | 65% | 1004.7 hPa | - | 1.34 m/s, 355° | - | - |
| 1778012582 | 16.67° C | 65% | 1004.7 hPa | - | 1.34 m/s, 321° | - | - |
| 1778012288 | 16.67° C | 64% | 1004.6 hPa | - | 1.34 m/s, 346° | - | - |
| 1778011993 | 16.67° C | 64% | 1004.5 hPa | - | 1.34 m/s, 328° | - | - |
| 1778011404 | 16.67° C | 64% | 1004.4 hPa | - | 1.34 m/s, 352° | - | - |
| 1778011109 | 16.67° C | 63% | 1004.4 hPa | - | 0.89 m/s, 341° | - | - |
| 1778010815 | 16.67° C | 63% | 1004.3 hPa | - | 1.34 m/s, 5° | - | - |
| 1778010520 | 16.67° C | 62% | 1004.5 hPa | - | 0.89 m/s, 340° | - | - |
| 1778010226 | 16.67° C | 62% | 1004.5 hPa | - | 0.89 m/s, 350° | - | - |
| 1778009931 | 16.67° C | 62% | 1004.5 hPa | - | 0.89 m/s, 317° | - | - |
| 1778009637 | 16.67° C | 63% | 1004.5 hPa | - | 0.89 m/s, 330° | - | - |
| 1778009342 | 16.11° C | 62% | 1004.4 hPa | - | 0.89 m/s, 353° | - | - |
| 1778009047 | 16.11° C | 61% | 1004.6 hPa | - | 0.45 m/s, 310° | - | - |
* Rain since midnight (hover to see other rain measurements)
** Current wind speed in m/s (hover to see current wind gust speed)